Theta_e
348 348 349 353 349 348 348 357 359 357 357 356 356 355 356 353 352 349 345 344 341 333
345 349 349 355 354 350 357 350 352 354 353 353 353 353 353 349 350 350 349 346 344 338
343 346 347 348 348 347 347 345 345 346 348 350 350 351 351 349 350 349 349 345 346 345
334 334 335 334 334 336 338 337 336 338 339 340 343 346 347 346 344 344 346 346 343 343
328 329 332 332 332 334 334 335 333 334 335 336 338 342 340 339 337 337 336 337 337 337
327 327 331 332 334 334 332 332 331 332 333 333 334 333 330 327 327 328 329 329 331 331
321 325 328 331 332 333 333 332 332 333 332 330 327 325 323 322 324 323 323 323 324 322
321 321 324 328 330 331 332 330 329 327 326 325 324 319 321 323 324 323 321 323 321 322
318 319 320 321 326 329 330 332 330 327 325 325 321 306 310 320 324 324 322 322 321 322
315 316 317 319 320 325 328 329 332 330 327 326 326 303 305 308 324 324 323 323 322 320
311 312 314 315 319 323 327 328 332 330 329 327 325 302 301 304 321 322 322 322 322 323
311 311 312 310 315 320 322 325 327 328 328 327 326 300 299 307 319 319 320 321 322 321
309 310 311 312 314 320 321 322 324 325 327 319 325 299 298 305 316 317 317 321 321 307
311 312 312 315 315 314 318 320 321 322 324 324 322 319 297 298 316 315 315 316 317 318
Wind_Speed
20 16 16 16 13 13 11 10 12 16 14 14 13 12 11 10 11 14 13 14 11 9
17 17 16 16 12 10 10 9 13 13 14 14 13 12 12 10 12 11 11 12 12 11
9 11 12 10 13 13 10 7 11 12 11 11 11 11 11 11 11 11 10 10 13 13
11 13 12 12 11 11 14 10 10 11 11 10 10 10 9 8 9 11 10 11 13 14
7 9 7 6 11 10 10 13 12 11 10 11 11 11 10 10 9 9 9 8 8 9
1 3 9 8 8 8 11 9 11 11 12 12 12 12 10 8 7 7 6 6 6 5
6 3 5 6 6 9 9 11 12 12 12 12 12 11 10 10 8 6 5 4 3 5
10 5 4 9 9 7 10 12 9 12 12 12 11 10 12 11 9 7 5 3 5 5
10 11 7 3 10 9 10 11 10 13 14 14 11 16 11 11 10 8 6 5 5 6
10 9 9 7 10 14 12 10 10 15 15 15 14 13 10 4 7 6 5 5 6 8
8 8 10 8 12 12 8 12 12 12 16 15 12 14 13 10 7 7 7 7 8 10
11 10 12 8 7 9 9 13 13 15 16 15 13 16 14 12 9 8 8 8 10 11
11 10 13 13 11 9 11 8 9 13 15 14 14 15 14 12 8 8 8 9 11 12
13 13 13 10 11 7 8 9 12 11 12 14 14 14 16 15 10 9 9 9 9 10
Wind_Direction
231 225 220 211 218 211 209 199 196 190 200 206 204 215 213 221 218 218 215 224 231 230
231 230 228 216 199 213 213 190 191 190 193 197 205 208 211 225 224 228 225 223 224 231
218 224 219 195 185 184 174 181 174 188 183 192 195 203 209 217 219 226 223 227 223 225
187 186 183 181 180 171 166 175 177 181 175 177 182 191 193 215 194 210 211 212 225 228
182 173 166 180 165 164 159 178 176 172 173 176 175 172 182 189 181 179 185 191 210 225
260 252 149 181 169 153 175 168 166 174 175 177 166 169 171 174 179 179 183 190 213 238
347 253 207 160 185 181 164 178 183 166 172 174 172 167 168 160 158 155 141 143 209 246
342 351 277 239 165 214 189 196 172 175 184 178 174 172 170 163 166 169 178 191 253 252
323 343 350 314 298 243 205 208 191 187 193 183 196 135 177 180 176 186 201 240 265 282
262 290 316 327 257 234 230 218 218 206 197 193 213 142 142 158 184 206 223 250 272 279
211 235 285 291 303 264 240 223 216 225 205 200 188 151 152 167 204 218 239 257 270 276
220 206 206 235 278 280 246 232 214 212 214 204 190 161 165 178 199 222 246 263 275 280
230 217 201 209 212 232 224 229 231 216 212 201 204 167 169 191 225 230 248 253 266 247
233 225 231 213 189 207 267 238 210 217 209 207 212 180 173 195 225 248 251 258 268 278